Regional Weather Roundup
Issued by NWS Sioux Falls, SD

Home | Current Version | Previous Version | Text Only | Print | Product List | Glossary Off
Versions: 1 2 3 4 5 6 7 8 9 10 11 12 13 14 15 16 17 18 19 20 21 22 23 24 25 26 27 28 29 30 31 32 33 34 35 36 37 38 39 40 41 42 43 44 45 46 47 48 49 50

000
ASUS43 KFSD 181802
RWRFSD

WEATHER ROUNDUP FOR SE SOUTH DAKOTA/SW MINNESOTA/NW IOWA
NATIONAL WEATHER SERVICE SIOUX FALLS SD
100 PM CDT THU SEP 18 2014

NOTE: "FAIR" INDICATES FEW OR NO CLOUDS BELOW 12,000 FEET WITH NO
SIGNIFICANT WEATHER AND OR OBSTRUCTIONS TO VISIBILITY.


SDZ038>040-050-052>070-181900-
SOUTHEAST SOUTH DAKOTA

CITY           SKY/WX    TMP DP  RH WIND       PRES   REMARKS
CHAMBERLAIN    SUNNY     73  61  65 S21G29    29.90F
6HR MIN TEMP:  55; 6HR MAX TEMP:  73; 6HR PCP:  0.03;

HURON          MOSUNNY   75  62  64 S15G22    29.92F
6HR MIN TEMP:  51; 6HR MAX TEMP:  75; 6HR PCP:  0.02;

MADISON        FAIR      68  55  64 S15G23    29.99F
MITCHELL       LGT RAIN  75  63  66 S17G28    29.95F
6HR MIN TEMP:  50; 6HR MAX TEMP:  75; 6HR PCP: TRACE;

SIOUX FALLS    MOSUNNY   75  55  49 S17       30.01F
6HR MIN TEMP:  56; 6HR MAX TEMP:  75;

WINNER         FAIR      78  58  49 S18G28    29.89F
YANKTON        MOSUNNY   73  57  56 S17       29.99F
$$

MNZ071-072-080-081-089-090-097-098-181900-
SOUTHWEST MINNESOTA

CITY           SKY/WX    TMP DP  RH WIND       PRES   REMARKS
FAIRMONT       MOSUNNY   70  52  52 S13       30.06F
JACKSON        SUNNY     72  52  49 SE10      30.06F
LUVERNE        SUNNY     73  54  49 S13G21    30.02F
MARSHALL       MOSUNNY   75  54  46 S15G24    30.00F
6HR MIN TEMP:  50; 6HR MAX TEMP:  75;

MONTEVIDEO     SUNNY     73  61  64 S12G17    30.01F
PIPESTONE      SUNNY     73  54  49 S16G23    30.02F
REDWOOD FALLS  MOSUNNY   73  55  53 S12       30.03F
TRACY          SUNNY     73  56  55 S15       30.03F
WINDOM         SUNNY     72  52  49 S10       30.05F
WORTHINGTON    SUNNY     72  54  53 S10G21    30.05F
$$

IAZ001>003-012>014-020>022-031-032-NEZ013-014-SDZ071-181900-
NORTHWEST IOWA

CITY           SKY/WX    TMP DP  RH WIND       PRES   REMARKS
CHEROKEE       SUNNY     72  56  57 S10G18    30.04F
DENISON        MOSUNNY   70  59  68 SE7G13    30.04S
ESTHERVILLE    SUNNY     68  56  65 S13       30.06F
LE MARS        SUNNY     72  57  60 S14       30.02F
ORANGE CITY    SUNNY     73  54  49 S10       30.03F
SIOUX CITY     SUNNY     73  58  59 S12       30.03F
6HR MIN TEMP:  56; 6HR MAX TEMP:  73;

SPENCER        SUNNY     71  56  58 S9        30.05F
6HR MIN TEMP:  48; 6HR MAX TEMP:  71;

STORM LAKE     SUNNY     68  59  73 SE13G18   30.06S
$$

ABBREVIATIONS USED IN REMARKS
   TC - TEMPERATURE IN CELSIUS
  WCI - WIND CHILL INDEX
   HX - HEAT INDEX
  VSB - VISIBILITY



USA.gov is the U.S. government's official web portal to all federal, state and local government web resources and services.